Showing default

PRAETORIAN SDA_616, 65579

Orbit data source: Space-Track

PRAETORIAN SDA_616, 65579 is a payload satellite owned by SDA (US) in LEO that was launched on Wed, 10 Sep 2025 UTC via an FALCON 9 launch vehicle from the Air Force Western Test Range (AFWTR). Payload-class satellites include a variety of spacecraft equipped with specific instruments for various scientific and technological missions. These include communications satellites like Starlink; space stations such as the ISS; scientific satellites like the Hubble; Earth observation satellites from companies like Planet Labs, Umbra, and HawkEye 360; GPS; miniature CubeSats for education and research; and military/defense satellites.

Loading next visibility...
Identifier
65579, 2025-203Q
Orbit
LEO
Country
Flag of USUS
Related business
Manufacturer
York Space Sys
Mission
Operational Defense Communications
Bus & Motor
S-CLASS, Unknown motor
Mass
~300 kg wet, ~300 kg dry
Launch date (UTC)
2025-09-10 (9 months ago)
Launch vehicle
FALCON 9
Launch site
Air Force Western Test Range (AFWTR)
Object type
Payload
Rocket body
Debris
Shape & HBR
Box + 4 Pan, 14.5 m
Radar Cross Section
1.244 m², Large (>1 m²)

Expand to show TLE details & history
Last TLE update: 22 hours ago

TLE from 22 hours ago
0 PRAETORIAN SDA_616
1 65579U 25203Q   26170.94897446  .00000194  00000-0  16597-3 0  9996
2 65579  81.3060   8.5231 0005430 184.4895 175.6214 13.83268264 39069
Epoch: 2026-06-19T22:46Z
TLE epoch observation values (Epoch: 2026-06-19T22:46:31.393Z)
Latitude
0.00005°
Longitude
118.72168°
Altitude
959.151 km
Speed
7.37 km/s
True Right ascension
00h 34m 05s
True Declination
0° 00' 00"
Sunlit
Object was in daylight at epoch
Visualization orbit readout
Latitude
Unknown
Longitude
Unknown
Altitude
Unknown
Speed
Unknown
Apparent Right ascension
Unknown
Apparent Declination
Unknown
Sunlit
N/A
Visualization observer readout
Local Sidereal Time
07:14:03
Azimuth
Unknown
Elevation
Unknown
Doppler factor
Unknown
Orbital elements
Apogee altitude
953.504 km
Perigee altitude
945.546 km
Semi-major axis
7,327.662 km
Eccentricity
0.00054
Inclination
81.306°
RAAN
8.5231°
Arg. of periapsis
184.4895°
True anomaly
175.62615°
Mean anomaly
175.6214°
Eccentric anomaly
175.62377°
Mean motion
3.46015 °/min
Orbital period
104.04 mins
BSTAR
0.00016597
Loading maneuver chart data...
Computing Atmospheric mass density...

Documentation

Showing up to 5 results
|